CAPE
0 0 0 0 0 0 0 0 0 22 62 14 806 1597 2660 3154 3359 3192 2870 2491 2474 2581 2599 2495 2151 1725 1459 1065 683 125 175 232 162 416 518 626 278 418 449 310 550 509 121
0 0 0 0 0 0 0 0 0 5 101 253 683 348 2336 2859 3058 3005 2587 2147 2530 2853 2634 2060 1704 1649 1446 1040 453 280 316 349 188 213 589 337 212 322 431 303 255 505 380
0 0 0 0 0 0 0 0 33 34 69 257 321 554 1530 2526 2833 2699 2307 2527 2696 2535 2313 1863 1630 1626 1352 1039 643 294 319 367 398 317 733 264 53 284 16 1 106 244 36
0 0 1 7 3 3 3 2 1 153 67 162 463 279 985 2036 2210 2381 2387 2551 2477 2294 2292 1869 1605 1499 1175 1030 758 561 424 270 134 186 366 398 113 75 4 2 6 4 16
4 1 2 2 12 10 7 5 2 29 297 218 630 800 1176 1855 1982 2463 2597 2537 2399 2295 1902 1630 1664 1358 982 717 547 470 225 319 318 210 205 271 230 116 104 38 36 1 1
2 0 9 14 4 6 25 13 2 26 606 413 521 788 1525 1992 1696 2293 2662 2544 2339 1946 1686 1525 1198 597 246 108 85 43 220 495 442 92 143 344 255 89 198 209 49 5 3
21 5 4 6 11 4 18 9 4 14 846 738 656 1079 1845 2413 1508 1922 2274 2526 2157 1808 1665 1206 857 540 342 232 10 0 0 0 13 439 560 522 543 373 296 390 208 114 35
20 8 8 7 5 2 0 2 7 9 735 1021 1095 1941 2482 2729 1434 1698 1929 2244 1917 1688 1314 948 556 422 238 159 81 15 5 13 20 31 66 337 401 142 162 181 109 89 1
12 0 0 7 1 1 0 0 9 119 753 1212 1955 2521 2871 1826 1286 1580 1607 1971 1537 1194 875 606 519 467 263 62 127 40 34 59 0 0 0 15 19 22 38 38 60 70 26
26 35 21 6 6 6 3 0 15 334 771 1762 2261 2631 2687 1698 1013 1399 1582 1326 1149 799 636 409 93 318 12 0 35 12 45 66 18 3 0 4 0 1 5 46 18 20 42
49 47 25 24 15 6 0 0 48 791 1288 1939 2369 2456 2036 1293 1002 959 894 1044 809 521 451 592 168 0 0 0 0 79 37 30 0 4 6 9 9 13 22 73 127 42 0
70 25 1 0 12 12 13 97 760 1165 1722 1988 2075 2182 2000 1028 671 106 215 188 298 340 254 273 19 0 0 0 0 0 0 2 6 3 1 2 10 38 79 121 166 126 42
10 4 1 0 1 0 5 451 1047 1577 1771 1811 1899 1756 1241 925 21 0 0 34 95 393 30 39 0 0 0 0 0 0 0 5 15 14 1 0 4 13 40 105 117 150 85
3 137 0 0 0 0 441 1047 1347 1545 1865 1882 1728 1310 1000 413 93 170 45 36 14 0 0 0 0 0 0 0 0 0 4 14 18 14 13 11 17 8 5 50 39 39 34
1 266 459 647 853 939 828 1094 1501 1754 1850 1820 1486 1071 675 345 193 132 256 308 181 73 0 0 0 2 8 4 5 3 0 2 1 1 6 8 8 2 2 7 2 9 30
36 179 373 492 404 345 269 132 9 365 860 882 914 817 416 62 0 0 12 8 0 0 0 1 1 2 5 2 2 13 26 3 0 0 2 3 9 8 2 2 1 24 15
6 199 373 794 940 775 777 704 475 0 0 1 4 3 0 0 0 0 0 0 0 0 8 5 1 0 5 5 18 25 27 6 7 1 6 4 8 15 2 1 0 0 7
60 174 484 806 718 741 711 490 348 269 163 0 0 0 0 0 0 0 0 0 0 0 7 1 2 1 5 9 9 16 19 16 9 2 4 5 8 4 3 1 0 0 8
1 14 289 618 672 513 452 373 248 172 4 0 0 0 0 0 0 0 0 0 3 10 7 3 12 7 8 10 16 22 16 17 20 4 12 20 11 3 3 2 0 0 1
0 6 206 281 349 273 182 146 67 15 25 9 0 0 0 0 0 0 1 7 7 16 24 18 20 6 4 16 21 2 4 3 14 4 4 9 13 3 0 1 4 1 0
0 131 149 196 235 181 222 155 108 139 98 14 0 2 0 0 0 4 40 21 23 17 14 20 10 12 26 22 6 9 17 28 25 10 20 3 11 18 0 0 0 0 1
181 207 314 224 217 252 232 238 269 163 9 3 0 0 0 7 18 25 25 21 21 16 53 42 38 35 28 32 7 10 21 29 27 23 25 22 3 0 11 10 9 0 0
137 211 223 160 190 146 169 166 136 9 1 7 6 16 13 13 2 1 0 1 1 0 0 0 0 0 0 5 25 31 40 37 41 48 11 35 12 4 3 0 0 16 7
181 283 267 191 192 183 154 196 6 0 5 6 0 0 3 3 1 3 1 1 1 1 2 3 2 0 0 0 0 0 0 0 1 44 20 19 13 0 34 40 0 0 0
215 194 231 183 95 57 33 1 3 3 1 0 3 4 2 3 8 9 5 2 1 2 2 2 1 2 2 1 0 1 0 0 0 0 6 1 0 0 0 0 0 0 0
152 105 63 36 3 1 1 1 1 2 3 6 5 3 5 3 2 5 0 0 0 0 0 0 0 0 0 0 0 0 0 0 0 0 0 1 0 0 0 0 0 0 0
CIN
-0 -0 -0 -0 -0 -0 -0 -0 -0 -368 -356 -394 -90 -11 -3 -2 -19 -52 -45 -58 -105 -44 -21 -27 -46 -17 -3 -3 -4 -95 -75 -33 -17 -6 -5 -20 -56 -10 -0 -2 -1 -0 -24
-0 -0 -0 -0 -0 -0 -0 -0 -0 -97 -251 -206 -85 -158 -0 -3 -48 -55 -63 -90 -72 -18 -23 -41 -59 -16 -6 -8 -20 -67 -33 -9 -11 -9 -3 -9 -31 -10 -0 -3 -2 -0 -1
-0 -0 -0 -0 -0 -0 -0 -0 -45 -80 -169 -139 -163 -126 -5 -3 -42 -72 -92 -41 -26 -20 -28 -55 -53 -8 -3 -5 -18 -49 -33 -2 -12 -2 -0 -5 -43 -4 -38 -8 -7 -0 -24
-2 -0 -1 -3 -0 -0 -1 -1 -0 -21 -106 -114 -120 -174 -17 -5 -39 -61 -78 -28 -10 -17 -17 -46 -33 -5 -1 -1 -5 -29 -3 -10 -14 -7 -0 -0 -12 -21 -22 -0 -0 -1 -7
-1 -2 -4 -6 -2 -2 -0 -1 -0 -84 -35 -116 -56 -82 -14 -4 -25 -23 -30 -22 -17 -14 -32 -46 -3 -4 -5 -9 -25 -27 -13 -3 -7 -8 -4 -6 -2 -17 -16 -15 -3 -2 -0
-1 -0 -2 -2 -2 -4 -0 -1 -1 -28 -0 -47 -73 -53 -2 -3 -27 -27 -10 -17 -25 -28 -48 -36 -12 -65 -116 -145 -136 -158 -19 -3 -0 -10 -12 -3 -2 -22 -2 -3 -13 -0 -1
-2 -2 -2 -1 -1 -3 -1 -1 -0 -41 -0 -0 -46 -23 -5 -0 -54 -54 -10 -2 -39 -39 -30 -27 -22 -55 -76 -82 -248 -0 -0 -0 -18 -6 -0 -2 -0 -7 -5 -0 -0 -0 -2
-1 -2 -1 -2 -1 -2 -0 -0 -0 -80 -0 -0 -11 -0 -0 -2 -92 -62 -21 -11 -32 -28 -26 -18 -34 -76 -78 -65 -68 -100 -38 -2 -11 -42 -19 -0 -3 -34 -18 -9 -6 -1 -10
-6 -0 -0 -1 -0 -1 -0 -0 -0 -100 -1 -8 -0 -0 -0 -60 -138 -88 -46 -23 -31 -35 -23 -46 -35 -37 -59 -112 -14 -17 -3 -7 -0 -0 -21 -71 -67 -53 -28 -19 -0 -0 -1
-17 -2 -3 -3 -1 -0 -0 -0 -49 -11 -2 -0 -1 -2 -4 -118 -184 -119 -34 -36 -38 -33 -36 -84 -145 -66 -134 -0 -36 -2 -1 -1 -42 -13 -0 -122 -36 -4 -23 -9 -27 -25 -0
-5 -1 -0 -0 -0 -0 -0 -0 -179 -0 -2 -4 -4 -2 -40 -174 -202 -156 -108 -17 -46 -41 -52 -33 -106 -0 -0 -0 -0 -1 -4 -3 -0 -20 -34 -16 -20 -12 -12 -2 -0 -4 -6
-0 -0 -0 -0 -0 -2 -0 -74 -0 -2 -4 -4 -4 -0 -25 -143 -204 -311 -206 -149 -102 -49 -55 -52 -24 -0 -0 -0 -0 -0 -8 -6 -0 -0 -0 -0 -0 -1 -0 -11 -1 -0 -5
-0 -0 -0 -0 -0 -0 -0 -7 -1 -4 -3 -4 -1 -19 -97 -108 -261 -0 -40 -240 -152 -19 -185 -148 -0 -0 -0 -0 -0 -0 -0 -1 -1 -0 -3 -0 -0 -19 -0 -6 -4 -0 -3
-0 -97 -0 -0 -0 -0 -42 -3 -4 -2 -0 -1 -18 -73 -101 -221 -274 -196 -269 -204 -93 -0 -0 -0 -0 -0 -0 -0 -0 -0 -1 -1 -2 -3 -8 -14 -0 -0 -0 -4 -1 -1 -1
-12 -9 -3 -1 -0 -1 -32 -21 -12 -5 -3 -9 -41 -124 -201 -211 -217 -206 -125 -76 -68 -101 -10 -0 -0 -0 -0 -0 -0 -0 -3 -4 -3 -6 -1 -1 -0 -0 -1 -3 -4 -16 -1
-97 -62 -26 -18 -45 -85 -132 -142 -105 -188 -64 -59 -80 -116 -162 -258 -0 -0 -229 -48 -0 -0 -0 -1 -0 -0 -0 -0 -0 -1 -1 -4 -5 -5 -1 -2 -0 -0 -0 -2 -3 -11 -6
-155 -38 -25 -1 -0 -30 -64 -122 -160 -0 -0 -10 -8 -8 -0 -0 -0 -0 -0 -0 -0 -0 -3 -0 -0 -0 -0 -0 -1 -2 -1 -4 -5 -2 -1 -1 -0 -0 -0 -0 -0 -0 -11
-70 -41 -4 -2 -43 -64 -71 -118 -145 -149 -155 -0 -0 -0 -0 -0 -0 -0 -0 -0 -0 -0 -5 -5 -0 -0 -1 -0 -1 -0 -2 -4 -2 -8 -1 -1 -0 -0 -0 -0 -0 -0 -11
-0 -93 -19 -2 -9 -36 -44 -53 -72 -88 -27 -0 -0 -0 -0 -0 -0 -0 -0 -0 -1 -2 -4 -3 -1 -0 -0 -0 -2 -3 -1 -3 -1 -4 -1 -1 -0 -0 -0 -0 -0 -0 -0
-0 -88 -11 -6 -4 -9 -21 -58 -125 -203 -203 -232 -0 -0 -0 -0 -0 -0 -1 -0 -2 -1 -0 -2 -3 -0 -1 -1 -1 -12 -2 -2 -1 -2 -2 -7 -1 -16 -0 -0 -0 -0 -0
-0 -2 -11 -5 -2 -10 -14 -37 -51 -28 -59 -99 -0 -0 -1 -0 -0 -1 -1 -2 -0 -0 -3 -2 -1 -3 -0 -1 -12 -21 -3 -1 -1 -5 -1 -10 -1 -1 -0 -0 -0 -0 -36
-1 -0 -1 -6 -5 -2 -1 -2 -5 -10 -86 -1 -1 -0 -0 -2 -0 -1 -1 -3 -7 -11 -3 -1 -1 -1 -0 -0 -9 -8 -3 -1 -1 -1 -1 -1 -1 -0 -2 -0 -0 -0 -0
-1 -1 -2 -7 -8 -13 -4 -5 -2 -21 -2 -1 -1 -1 -5 -1 -1 -0 -0 -0 -0 -0 -0 -0 -0 -0 -0 -1 -15 -10 -10 -3 -1 -0 -18 -0 -8 -8 -0 -0 -0 -0 -6
-12 -1 -3 -11 -6 -1 -1 -1 -4 -1 -0 -0 -0 -0 -0 -0 -0 -0 -0 -0 -0 -0 -0 -0 -0 -0 -0 -0 -0 -0 -0 -0 -2 -0 -12 -6 -1 -0 -3 -1 -2 -0 -0
-14 -14 -2 -1 -1 -2 -2 -6 -0 -1 -0 -0 -0 -0 -0 -0 -0 -0 -0 -0 -0 -0 -0 -0 -0 -0 -0 -0 -0 -0 -0 -0 -0 -0 -2 -0 -0 -0 -0 -0 -0 -0 -0
-5 -5 -4 -1 -9 -5 -1 -0 -0 -0 -0 -0 -0 -0 -0 -0 -0 -0 -0 -0 -0 -0 -0 -0 -0 -0 -0 -0 -0 -0 -0 -0 -0 -0 -0 -0 -0 -0 -0 -0 -0 -0 -0
Wind_Speed
40 42 43 43 43 44 44 45 46 46 46 47 42 37 30 27 23 20 19 17 16 14 13 13 10 11 11 8 5 9 11 13 12 14 10 13 14 12 14 12 10 9 7
42 44 46 45 45 45 45 45 45 47 45 45 42 40 35 29 22 21 19 18 17 15 14 11 10 9 9 6 8 11 12 12 10 12 13 14 12 12 13 12 14 13 13
43 47 48 47 47 47 47 47 47 43 43 43 43 39 34 29 23 22 20 18 16 15 12 10 10 9 8 5 8 11 10 9 11 11 12 12 13 11 14 15 14 14 13
46 47 48 48 48 49 48 47 49 46 43 44 37 42 36 29 24 22 19 18 16 13 10 10 10 8 5 6 9 11 12 9 10 10 10 11 11 12 13 14 13 14 13
47 49 49 50 51 51 51 49 49 49 45 45 35 43 40 29 25 21 18 16 14 11 10 10 9 6 5 9 9 10 8 9 8 9 10 11 11 12 11 13 14 12 13
50 53 50 50 52 54 52 50 50 49 46 46 43 39 36 30 24 20 18 15 12 10 10 9 8 7 9 11 11 14 10 8 9 8 10 9 10 10 11 11 12 13 16
52 53 54 55 54 55 55 54 52 51 45 47 43 42 31 25 21 19 16 13 10 10 9 7 6 6 8 8 11 9 9 11 11 11 11 10 12 9 10 11 12 14 17
55 56 55 55 56 58 59 57 54 51 45 44 43 38 27 22 19 18 16 10 9 7 6 5 4 5 7 7 6 6 6 8 8 11 11 13 13 8 5 9 15 15 14
50 63 60 58 60 60 62 60 56 51 45 40 41 33 24 21 20 19 16 9 6 5 4 2 4 4 5 5 5 5 5 8 12 14 16 14 12 9 6 5 7 9 13
34 39 57 61 61 61 60 60 53 50 45 41 31 26 22 20 21 20 13 7 5 4 2 5 8 6 3 3 5 6 6 8 11 12 11 8 9 6 4 5 1 2 18
32 44 60 57 57 57 58 57 53 49 43 36 28 24 21 20 21 21 11 7 5 4 3 4 6 5 3 4 4 11 9 9 11 12 11 7 8 13 16 16 12 3 4
39 52 63 57 53 53 56 52 51 45 40 32 26 23 21 19 20 15 9 7 5 4 3 4 3 2 5 5 6 11 8 7 9 10 11 9 6 5 9 10 5 4 18
38 42 54 60 57 52 51 51 44 39 33 28 25 21 17 17 14 10 6 4 4 4 7 2 2 4 5 6 8 8 6 5 7 8 8 9 7 6 10 12 8 6 8
17 18 43 53 55 54 50 40 35 30 29 26 22 18 17 15 13 9 7 5 3 3 3 3 4 5 6 6 8 6 6 5 6 7 8 9 8 7 6 7 7 7 10
3 20 32 38 38 34 31 32 28 26 24 21 18 17 15 14 13 12 9 6 4 1 3 3 4 4 4 6 6 6 6 6 7 8 7 7 9 8 7 8 10 12 13
4 17 23 26 28 28 27 23 18 19 18 15 14 12 10 10 13 11 7 4 4 2 2 3 3 3 3 4 4 4 5 6 8 8 6 6 7 7 6 8 12 15 17
5 17 21 24 24 24 23 21 19 14 12 10 9 9 11 14 13 9 7 6 4 2 4 4 3 2 3 3 3 4 4 6 7 7 7 6 6 7 7 7 12 18 24
10 18 21 22 20 19 17 17 16 16 13 10 7 10 13 12 11 8 6 3 1 6 4 3 4 4 3 2 3 5 6 7 8 8 7 8 8 8 7 7 13 19 28
17 20 24 23 17 14 14 13 13 12 12 11 10 8 7 8 8 7 8 1 2 2 3 5 5 4 4 2 5 5 6 9 11 9 9 8 8 8 9 9 7 9 20
22 25 27 20 14 14 13 13 12 12 12 11 10 8 6 5 4 3 4 1 2 4 4 6 6 3 1 2 3 5 7 10 9 9 8 9 9 8 8 8 8 8 10
26 23 22 16 12 12 12 12 12 16 10 8 8 7 5 4 3 1 3 2 4 4 3 13 4 2 2 2 3 6 5 6 8 9 10 11 11 9 8 7 9 7 12
33 20 18 14 11 12 12 14 12 11 9 7 7 9 3 4 2 3 3 5 6 10 12 9 8 4 2 3 3 4 6 6 8 9 10 10 10 10 9 7 9 11 10
27 12 17 12 17 15 17 14 11 9 8 10 11 7 1 0 1 3 4 6 7 8 9 9 9 9 9 7 8 10 10 11 12 11 12 12 13 11 9 8 8 12 14
29 29 24 25 24 18 14 10 9 7 12 9 3 2 1 1 2 4 5 6 7 7 7 7 7 7 9 9 10 11 12 14 15 14 14 13 13 13 14 13 14 15 16
25 25 22 17 13 11 9 10 10 6 5 5 4 4 4 5 4 4 5 4 4 4 5 6 6 7 7 9 11 12 14 14 14 14 13 12 13 13 13 13 14 14 15
19 16 14 12 10 8 7 7 8 6 6 5 5 5 6 6 6 6 5 6 5 5 6 6 6 6 7 9 10 10 10 11 13 12 12 12 12 14 13 14 15 16 17
Wind_Direction
284 281 277 275 274 271 270 268 265 264 262 261 264 266 259 260 260 262 262 265 271 272 278 293 305 317 323 324 316 331 331 334 332 347 4 354 350 356 354 5 10 11 37
285 282 277 276 273 271 270 268 265 263 261 260 260 261 260 258 255 258 253 260 265 266 277 289 302 311 313 312 324 330 331 335 333 338 337 344 353 354 350 354 343 345 339
288 284 277 274 272 270 269 268 266 264 262 259 257 258 257 256 250 251 250 257 262 268 269 283 301 308 309 291 311 327 324 328 338 329 335 342 345 351 344 342 340 335 337
290 285 279 274 272 269 268 268 263 263 262 259 256 255 256 254 249 246 246 253 257 262 263 286 301 301 288 301 317 321 328 333 330 330 333 337 340 344 341 335 333 329 327
289 287 278 274 271 268 265 264 262 259 259 256 255 250 252 249 247 242 241 242 252 253 268 291 302 299 292 309 319 322 323 322 328 323 327 331 333 332 327 327 321 323 319
286 284 280 274 270 265 262 261 258 256 254 251 247 247 248 247 241 229 235 235 234 247 271 294 305 302 307 315 321 332 336 328 327 324 323 322 327 325 323 320 315 308 300
284 283 279 273 266 261 259 256 253 251 250 245 242 243 243 239 225 214 221 226 231 254 277 289 294 299 306 312 315 324 334 333 333 333 326 323 322 317 313 303 304 301 298
284 279 275 271 264 260 254 250 247 246 245 241 237 239 235 229 207 202 205 220 235 258 277 273 274 310 310 319 336 330 328 333 331 329 327 326 325 322 310 303 293 299 300
289 278 273 265 263 255 246 241 239 240 240 235 232 230 220 221 195 190 193 212 238 251 258 233 279 311 326 326 348 354 358 354 344 338 335 339 346 341 326 320 301 283 288
258 285 274 257 253 245 236 232 233 234 232 228 220 206 208 208 188 182 194 210 231 239 213 287 299 318 348 358 359 0 357 353 348 349 352 1 356 22 92 99 81 91 272
286 291 262 253 240 233 224 223 226 226 222 218 211 209 208 198 183 172 194 220 212 213 230 280 298 321 355 6 7 347 354 6 3 4 15 56 84 111 136 148 130 81 352
267 254 249 236 226 219 214 217 219 215 212 208 203 204 203 190 174 177 224 255 180 210 252 292 324 332 349 358 1 345 9 29 30 42 44 63 24 58 111 123 64 93 275
282 261 203 198 203 205 207 209 207 203 199 194 186 190 186 175 188 200 222 191 213 272 290 323 42 17 353 355 355 3 44 49 31 57 70 52 74 0 320 306 320 348 320
306 171 173 182 190 195 199 195 191 183 184 181 181 184 177 181 191 191 195 191 210 308 22 355 6 1 346 2 355 34 85 37 51 68 54 39 37 16 17 340 336 331 311
88 142 162 171 175 175 180 185 180 181 182 177 181 178 180 184 181 175 180 198 205 230 311 334 344 352 358 356 12 46 56 17 12 7 23 35 38 27 356 330 319 309 307
97 144 152 160 165 168 171 169 170 181 177 189 188 192 189 177 164 171 183 189 151 137 325 332 326 344 354 356 9 35 66 347 341 349 8 38 67 34 14 344 313 303 295
174 161 159 160 158 160 161 155 153 162 157 178 179 172 161 152 154 156 157 144 139 118 318 318 309 328 334 344 20 47 34 333 350 351 350 10 25 23 8 353 314 290 268
200 177 173 171 167 164 162 159 164 165 164 176 179 150 141 142 147 145 140 136 146 300 322 317 303 303 319 358 23 38 8 345 334 345 355 357 4 26 26 18 307 281 242
204 198 191 188 181 169 162 164 161 159 170 169 164 168 157 140 135 135 130 130 114 351 339 307 292 294 301 359 337 6 2 332 318 335 344 353 7 31 37 47 32 311 272
204 196 192 189 163 165 155 146 150 152 156 167 174 165 162 155 167 171 270 339 22 53 347 303 291 298 56 40 17 359 341 334 338 335 353 349 359 23 41 41 32 355 325
195 192 191 181 153 147 151 151 148 124 147 151 152 153 152 146 145 221 286 6 52 43 9 267 314 6 346 15 352 334 35 17 352 336 345 331 333 3 16 18 349 15 325
190 202 198 187 163 157 165 181 177 172 157 140 143 126 117 118 110 267 321 351 321 287 278 290 298 331 352 349 62 41 358 31 342 344 341 346 4 356 350 24 348 336 346
196 192 199 189 189 182 187 185 176 155 138 119 113 104 124 114 287 304 321 315 321 305 301 300 290 288 279 293 299 297 302 307 309 334 340 343 335 345 0 11 1 332 329
194 187 185 181 182 185 180 148 138 134 111 110 134 134 111 9 358 335 309 301 313 309 303 298 303 287 281 285 290 291 296 299 300 320 334 340 345 343 333 346 339 325 327
181 182 183 179 170 166 146 121 113 138 141 130 126 103 77 67 50 40 26 354 335 324 310 306 297 298 299 297 297 292 290 302 314 318 331 353 358 1 359 7 8 358 348
179 178 177 173 160 137 145 147 137 135 135 141 118 95 80 78 61 56 46 37 32 20 11 359 357 353 345 324 323 324 323 328 329 331 335 351 360 1 8 10 9 4 0